Location: Noordwijk
(52.2400°N, 4.4500°E)
Time: 01:57:33
(UTC+00:00)

CAS-4B - Pass Details

Date: 07 December 2022
Orbit: 515 x 531 km, 43.0° (Epoch: 26 January)

Event Time Altitude Azimuth Distance (km) Brightness Sun altitude
Exits shadow 06:11:22 - 233° (SW) 2,550 ? -12.2°
Reaches altitude 10° 06:13:43 10° 217° (SW) 1,775 ? -11.9°
Maximum altitude 06:16:44 20° 169° (S) 1,261 ? -11.4°
Drops below altitude 10° 06:19:45 10° 121° (ESE) 1,785 ? -11.0°
Sets 06:22:25 0° 105° (ESE) 2,679 ? -10.6°
